OBJECT N, 65562

Orbit data source: Space-Track

You're viewing an Uncataloged Satellite

Recently launched and/or uncataloged satellites may have evolving metadata. Metadata may include but not limited to: Owner, Maufacturer, Bus, Motor, and Mission.

OBJECT N, 65562 is a satellite owned by Changzheng H. (CN) in LEO that was launched on Mon, 08 Sep 2025 UTC launched from the Yellow Sea Launch Area, China (YSLA). Unknown objects in Earth's orbit typically refer to objects detected orbiting the Earth but have not yet been identified or cataloged. These objects could be anything from previously untracked satellites, spent rocket stages, debris from satellite collisions, or even natural meteoroids temporarily captured by Earth's gravity.

Loading next visibility...
Identifier
65562, 2025-201N
Orbit
LEO
Country
Flag of CNCN / PRC
Related business
None
Manufacturer
Changzheng H.
Mission
Spacecraft
Bus & Motor
Unknown
Mass
500 kg wet, 500 kg dry
Launch date (UTC)
2025-09-08 (1 week ago)
Launch vehicle
Unknown
Launch site
Yellow Sea Launch Area, China (YSLA)
Object type
Unknown
Shape & HBR
Unknown
Radar Cross Section
Large (>1 m²)

Expand to show TLE details & history
Last TLE update: 6 days ago

TLE from 6 days ago
0 OBJECT N
1 65562U 25201N   25254.35778919  .01503159  10638-4  53452-3 0  9999
2 65562  50.1447 251.9529 0292241 356.4634   3.4274 15.71304813   396
Epoch: 2025-09-11T08:35Z
TLE epoch observation values (Epoch: 2025-09-11T08:35:12.986Z)
Latitude
-0.00003°
Longitude
132.52776°
Altitude
159.359 km
Speed
7.925 km/s
True Right ascension
16h 47m 48s
True Declination
0° 00' 00"
Sunlit
Object was in daylight at epoch
Visualization orbit readout
Latitude
Unknown
Longitude
Unknown
Altitude
Unknown
Speed
Unknown
Apparent Right ascension
Unknown
Apparent Declination
Unknown
Sunlit
N/A
Visualization observer readout
Local Sidereal Time
02:53:36
Azimuth
Unknown
Elevation
Unknown
Doppler factor
Unknown
Orbital elements
Apogee altitude
552.728 km
Perigee altitude
159.134 km
Semi-major axis
6,734.068 km
Eccentricity
0.02922
Inclination
50.1447°
RAAN
251.9529°
Arg. of periapsis
356.4634°
True anomaly
3.63517°
Mean anomaly
3.4274°
Eccentric anomaly
3.53051°
Mean motion
3.9276 °/min
Orbital period
91.66 mins
BSTAR
0.00053452
Loading maneuver chart data...
Computing Atmospheric mass density...
Loading historical data...
Loading historical data...
Loading historical data...
Loading historical data...
Loading historical data...
Loading historical data...
Loading historical data...

Documentation

Showing up to 5 results
|